Regional Weather Roundup
Issued by NWS Upton, NY

Home | Current Version | Previous Version | Text Only | Print | Product List | Glossary On
Versions: 1 2 3 4 5 6 7 8 9 10 11 12 13 14 15 16 17 18 19 20 21 22 23 24 25 26 27 28 29 30 31 32 33 34 35 36 37 38 39 40 41 42 43 44 45 46 47 48 49
000
ASUS41 KOKX 182105
RWROKX

REGIONAL WEATHER ROUNDUP
NATIONAL WEATHER SERVICE NEW YORK NY
400 PM EST THU DEC 18 2014

NOTE: "FAIR" INDICATES FEW OR NO CLOUDS BELOW 12,000 FEET WITH NO
SIGNIFICANT WEATHER AND/OR OBSTRUCTIONS TO VISIBILITY.

NYZ071-072-176-178-NJZ106-104-182200-
NEW YORK CITY METRO AREA


CITY           SKY/WX    TMP DP  RH WIND       PRES   REMARKS
CENTRAL PARK   MOCLDY    41  23  48 VRB7G25   29.98R
LAGUARDIA APRT MOCLDY    41  25  53 NW21G28   29.96R
KENNEDY INTL   PTCLDY    42  24  49 W15G24    29.96R
NEWARK/LIBERTY MOCLDY    41  25  53 W22G28    29.97R
BRNX BOT. GARD   N/A    N/A N/A N/A W16       29.97R
TETERBORO      CLOUDY    40  25  55 NW8G22    29.96R WCI  34
$$

NYZ177-179-078>081-182200-
LONG ISLAND NEW YORK

CITY           SKY/WX    TMP DP  RH WIND       PRES   REMARKS
FARMINGDALE    CLEAR     41  24  51 NW13G24   29.94R
ISLIP          PTCLDY    40  25  55 W15G23    29.91R WCI  32
SHIRLEY        CLEAR     41  26  55 W12G22    29.92R
WESTHAMPTON    CLEAR     41  25  53 W13       29.91R
MONTAUK POINT    N/A     42  29  59 W14G23    29.89R
$$

NYZ052-065-067-182200-
HUDSON VALLEY

CITY           SKY/WX    TMP DP  RH WIND       PRES   REMARKS
WHITE PLAINS   MOCLDY    38  25  59 W16G25    29.92R WCI  29
NEWBURGH       MOCLDY    37  27  65 NW18G30   29.95R WCI  27
MONTGOMERY     CLOUDY    37  26  64 NW12G20   29.95R WCI  29
POUGHKEEPSIE   CLOUDY    40  26  57 W14       29.93R WCI  32
ALBANY         CLOUDY    36  25  64 W13G23    29.93R WCI  27
$$

NJZ001-105-106-008-010-013-015-019>022-104-182200-
NEW JERSEY

CITY           SKY/WX    TMP DP  RH WIND       PRES   REMARKS
NEWARK/LIBERTY MOCLDY    41  25  53 W22G28    29.97R
TETERBORO      CLOUDY    40  25  55 NW8G22    29.96R WCI  34
CALDWELL       CLOUDY    39  24  55 NW17G24   29.98R WCI  30
MORRISTOWN     MOCLDY    41  27  56 NW15G23   29.98R
SOMERVILLE     CLOUDY    41  24  51 MISG      29.97R
SUSSEX         CLOUDY    37  25  61 SW3       29.97R
ANDOVER          N/A     36  25  64 N7        29.98R WCI  30
TRENTON        PTCLDY    38  23  55 NW16G22   29.99S WCI  29
MILLVILLE      CLEAR     39  23  52 NW13G26   30.03S WCI  31
ATLANTIC CITY  CLEAR     39  24  55 NW17G24   30.00R WCI  30
WRIGHTSTOWN    CLEAR     38  24  56 NW16      29.98R WCI  29
TOMS RIVER     CLEAR     39  25  56 W20       29.98R WCI  30
BELMAR         CLEAR     39  21  48 W9G20     29.96R WCI  33
$$

PAZ047>061-062-071-182200-
EASTERN PENNSYLVANIA

CITY           SKY/WX    TMP DP  RH WIND       PRES   REMARKS
PHILADELPHIA   MOCLDY    40  23  50 NW15G24   30.04R WCI  32
ALLENTOWN      CLOUDY    38  23  55 W16       30.00S WCI  29
SCRANTON       CLOUDY    36  25  64 NW9       29.99R WCI  29
$$

CTZ002-004>006-009-010-012-RIZ004-006-007-MAZ004-011-015-182200-
SOUTHERN NEW ENGLAND
 IN CT

CITY           SKY/WX    TMP DP  RH WIND       PRES   REMARKS
BRADLEY INTL   MOCLDY    38  26  62 NW10      29.87R WCI  31
HARTFORD       CLOUDY    39  26  59 W10       29.89R WCI  32
DANBURY        CLOUDY    38  24  57 W9G21     29.92R WCI  31
WTRBRY/OXFORD  MOCLDY    37  23  56 NW6       29.89R WCI  33
BRIDGEPORT     CLOUDY    43  26  51 W8        29.91R
MERIDEN        MOCLDY    39  26  59 NW8       29.90R WCI  33
NEW HAVEN      MOCLDY    45  27  49 NW8       29.90R
CHESTER        MOCLDY    37  28  70 NW8       29.88R WCI  31
GROTON         MOCLDY    39  28  64 NW10G18   29.87R WCI  32
WILLIMANTIC    PTCLDY    39  26  59 W10G18    29.87R WCI  32

 IN RI

CITY           SKY/WX    TMP DP  RH WIND       PRES   REMARKS
PROVIDENCE     MOCLDY    41  27  57 NW12      29.84R
BLOCK ISLAND   PTCLDY    39  27  60 NW12G23   29.86R WCI  32
WESTERLY       PTCLDY    40  27  59 NW9G21    29.86R WCI  34

 IN MA

CITY           SKY/WX    TMP DP  RH WIND       PRES   REMARKS
BOSTON         MOCLDY    42  29  59 W10G20    29.80R
WORCESTER      CLOUDY    35  27  72 W13       29.79R WCI  26
WESTFIELD      MOCLDY    38  26  62 NW10      29.86R WCI  31
PROVINCETOWN   CLOUDY    43  30  61 NW17G24   29.79R
NANTUCKET      CLEAR     42  29  59 W14       29.81R
$$

ANZ330-335-338-340-345-350-353-355-182200-
COASTAL MARINE OBSERVATIONS


STATION/POSITION TIME  SKY/WX   TEMP    WIND        PRES    VSBY  WAVE
                                AIR SEA DIR/SP/G                  HT/PER
                 (UTC)          (F)     (DEG/KT/KT) (MB)    (MI)  (FT/S)
NY HARB ENTRANCE 2100            42 47  290/ 21/ 27 1013.9          3/ 4
4S FIRE IS       2100               47                N/A           4/ 5
20S FIRE ISLAND  2000            41 50              1012.9          5/ 5
23SW MTP         2100                                 N/A           5/ 6
HUDSON CANYON    2100            42 55  290/ 19/ 25 1013.1          7/ 7
EXECUTION ROCKS  2100            42 42  300/ 17/ 23   N/A
WESTERN LI SOUND 2100            41     300/ 17/ 23   N/A           2/ 3
CENTRAL LI SOUND 2000            43 45  290/ 14/ 19   N/A           2/ 4
EASTERN LI SOUND NOT AVBL
ROBBINS REEF     2100            40     130/ 20/ 24 1013.2
$$


>>>>>>>>>>>>>>>>>>>>>>>>>>>> KEY <<<<<<<<<<<<<<<<<<<<<<<<<<<
>                                                          <
>     SKY/WX - SKY CONDITION/PRESENT WEATHER               <
>     TMP    - TEMPERATURE IN FAHRENHEIT                   <
>     DP     - DEWPOINT IN FAHRENHEIT                      <
>     RH     - RELATIVE HUMIDITY IN PERCENT                <
>     WIND   - DIRECTION AND SPEED IN MPH                  <
>     PRES   - MEAN SEA LEVEL PRESSURE IN INCHES OF HG     <
>     WCI    - WIND CHILL INDEX                            <
>     VSB    - VISIBILITY IN MILES                         <
>     HX     - HEAT INDEX                                  <
>     TC     - TEMPERATURE IN CELSIUS                      <
>     VRB    - VARIABLE WIND DIRECTION                     <
>                                                          <
>>>>>>>>>>>>>>>>>>>>>>>>>>>> KEY <<<<<<<<<<<<<<<<<<<<<<<<<<<





USA.gov is the U.S. government's official web portal to all federal, state and local government web resources and services.